Location: Fort Wayne
(41.1310°N, 85.1290°W)
Time: 02:32:56
(UTC-04:00)

Helios 1B - Visible Passes

Search period start: 02 August 2014 00:00
Search period end: 12 August 2014 00:00
Orbit: 626 x 630 km, 98.2° (Epoch: 01 August)

Date Brightness Start Highest point End Pass type
(mag) Time Alt. Az. Time Alt. Az. Time Alt. Az.
02 Aug 5.2 00:16:19 51° WNW 00:16:19 51° WNW 00:19:57 10° NNW visible
02 Aug 6.1 22:59:02 21° ENE 22:59:26 21° ENE 23:02:43 10° NNE visible
03 Aug 6.1 00:36:22 31° WNW 00:36:22 31° WNW 00:39:28 10° NNW visible
03 Aug 5.6 23:19:06 33° ENE 23:19:06 33° ENE 23:22:57 10° N visible
04 Aug 6.7 00:56:26 20° WNW 00:56:26 20° WNW 00:58:43 10° NW visible
04 Aug 5.0 23:39:09 51° NE 23:39:09 51° NE 23:42:58 10° N visible
05 Aug 7.2 01:16:29 12° WNW 01:16:29 12° WNW 01:17:25 10° WNW visible
05 Aug 5.0 23:59:13 60° N 23:59:13 60° N 00:02:48 10° NNW visible
06 Aug 6.6 22:41:56 14° ENE 22:42:25 14° ENE 22:44:45 10° NNE visible
07 Aug 5.6 00:19:16 43° NW 00:19:16 43° NW 00:22:29 10° NNW visible
07 Aug 6.1 23:02:00 22° ENE 23:02:00 22° ENE 23:05:20 10° NNE visible
08 Aug 6.3 00:39:20 27° WNW 00:39:20 27° WNW 00:41:58 10° NNW visible
08 Aug 5.6 23:22:03 33° NE 23:22:03 33° NE 23:25:31 10° N visible
09 Aug 6.9 00:59:23 18° WNW 00:59:23 18° WNW 01:01:11 10° NW visible
09 Aug 5.3 23:42:06 46° NNE 23:42:06 46° NNE 23:45:30 10° N visible
10 Aug 7.4 01:19:27 11° WNW 01:19:27 11° WNW 01:19:47 10° WNW visible
11 Aug 5.5 00:02:10 47° NNW 00:02:10 47° NNW 00:05:19 10° NNW visible
11 Aug 6.6 22:44:53 15° ENE 22:44:54 15° ENE 22:47:22 10° NNE visible
